Simultaneous Nadir Overpasses (SNOs) Predictions

Prediction of SNOs between GOES-16 and TERRA Satellite Orbit:

Table of predicted SNOs for the next 14.0 days since TLE Epoch: 7/1/2022
Index Date Time (GOES-16) GOES-16 Lat,Lon TERRA Lat,Lon Distance(km) Time Diff (sec)
1 07/03/2022 15:14:45 0.00, -75.22 -0.26, -73.84 156.23 80
2 07/04/2022 03:33:29 0.00, -75.21 -0.79, -79.04 435.20 80
3 07/05/2022 15:02:30 -0.00, -75.24 -0.94, -70.89 494.31 80
4 07/06/2022 03:21:13 0.01, -75.23 -0.17, -76.08 96.87 80
5 07/08/2022 03:11:37 -0.00, -75.25 0.44, -73.12 242.13 80
6 07/08/2022 15:30:12 0.00, -75.27 0.61, -78.29 342.46 80
7 07/10/2022 15:17:55 0.02, -75.29 0.05, -75.31 4.42 80
8 07/12/2022 15:05:40 0.01, -75.31 -0.64, -72.37 335.69 80
9 07/13/2022 03:29:43 -0.01, -75.31 -0.47, -77.56 255.27 80
10 07/15/2022 03:14:47 -0.01, -75.34 0.17, -74.60 84.30 80
